Regional Weather Roundup
Issued by NWS

Home | Current Version | Previous Version | Text Only | Print | Product List | Glossary On
Versions: 1 2 3 4 5 6 7 8 9 10 11 12 13 14 15 16 17 18 19 20 21 22 23 24 25 26 27 28 29 30 31 32 33 34 35 36 37 38 39 40 41 42 43 44 45 46 47 48 49 50
000
ASUS43 KDMX 181606
RWRIA

WEATHER ROUNDUP FOR IOWA
NATIONAL WEATHER SERVICE DES MOINES IA
1000 AM CST SAT NOV 18 2017

NOTE: "FAIR" INDICATES FEW OR NO CLOUDS BELOW 12,000 FEET WITH NO
SIGNIFICANT WEATHER AND/OR OBSTRUCTIONS TO VISIBILITY.

* - THESE STATIONS ARE NOT NWS STATIONS...THUS NOT UNDER NWS
QUALITY CONTROL.  THEY ALSO DO NOT REPORT WEATHER SUCH
AS PRECIPITATION OR FOG.

IAZ001>003-012>014-020>022-031>034-043>046-181700-
   NORTHWEST IOWA

CITY           SKY/WX    TMP DP  RH WIND       PRES   REMARKS
CARROLL *      PTSUNNY   37  30  75 NW20G28   29.83R WCI  27
CHEROKEE *     MOSUNNY   33  28  80 NW14G23   29.89R WCI  23
DENISON *      CLOUDY    36  30  80 N14G22    29.89R WCI  27
LE MARS *      CLOUDY    36  27  69 NW14G23   29.93R WCI  27
ORANGE CITY *  CLOUDY    37  28  70 NW13G18   29.90R WCI  29
SHELDON *      SUNNY     34  25  69 NW16G23   29.89R WCI  23
SIOUX CITY     CLOUDY    35  27  72 NW20G26   29.94R WCI  24
SPENCER        MOSUNNY   32  20  61 NW21G32   29.87R WCI  20
STORM LAKE *   PTSUNNY   34  27  75 NW16G22   29.86R WCI  23
$$

IAZ055>058-069>071-079>083-090>094-181700-
   SOUTHWEST IOWA

CITY           SKY/WX    TMP DP  RH WIND       PRES   REMARKS
ATLANTIC *     CLOUDY    37  32  81 N18       29.85R WCI  27
AUDUBON *      CLOUDY    37  32  81 NW13G21   29.85R WCI  29
CLARINDA *     CLOUDY    39  36  87 N20G30    29.87R WCI  30
COUNCIL BLFS * PTSUNNY   37  32  81 NW21G31   29.88R WCI  27
CRESTON *      CLOUDY    39  36  87 N24       29.83R WCI  28
HARLAN  *      CLOUDY    37  34  87 N17       29.90R WCI  28
LAMONI         CLOUDY    39  36  89 NW21G35   29.78R WCI  29
RED OAK *      CLOUDY    39  32  75 N18G28    29.87R WCI  30
SHENANDOAH *   CLOUDY    39  34  81 NW17G24   29.89R WCI  30
$$

IAZ047>049-059>061-072>074-084-181700-
   CENTRAL IOWA

CITY           SKY/WX    TMP DP  RH WIND       PRES   REMARKS
AMES           CLOUDY    36  34  92 N20G31    29.78R WCI  25
ANKENY *       CLOUDY    37  34  87 NW22      29.79R WCI  27
BOONE *        PTSUNNY   36  32  87 NW16G26   29.79R WCI  26
CHARITON *     CLOUDY    39  36  87 NW23G30   29.76R WCI  29
DES MOINES     CLOUDY    40  35  83 N15       29.78R WCI  32
GRINNELL*      CLOUDY    38  35  92 NW18G26   29.74R FOG     WCI  28
KNOXVILLE *    CLOUDY    39  36  87 NW22G30   29.74R FOG     WCI  29
MARSHALLTOWN   CLOUDY    38  34  85 NW26G32   29.75R WCI  26
NEWTON *       CLOUDY    37  36  93 N21G30    29.75R WCI  27
PELLA *        CLOUDY    38  37  93 NW22      29.76R FOG     WCI  28
PERRY *          N/A     37  34  89 NW16G24   29.82R WCI  27
$$

IAZ004>006-015-016-023>025-035-036-181700-
   NORTH CENTRAL IOWA

CITY           SKY/WX    TMP DP  RH WIND       PRES   REMARKS
ALGONA *       SUNNY     34  27  75 NW20G25   29.81S WCI  22
CLARION *      MOSUNNY   34  34 100 N21G31    29.79R WCI  22
ESTHERVILLE    MOSUNNY   31  23  72 NW25G31   29.85R WCI  17
FORT DODGE *   MOSUNNY   34  28  79 NW10G17   29.81R WCI  26
MASON CITY     MOSUNNY   34  30  85 N22G28    29.77R WCI  22
FOREST CITY *    N/A     34  32  93 N20G25    29.78S WCI  22
WEBSTER CITY * MOSUNNY   34  32  93 NW22G29   29.78R WCI  22
IOWA FALLS *   CLOUDY    37  33  88 NW23G30   29.76R WCI  25
$$

IAZ007>011-017>019-026>030-037>042-050>054-066-181700-
   NORTHEAST IOWA

CITY           SKY/WX    TMP DP  RH WIND       PRES   REMARKS
CEDAR RAPIDS   CLOUDY    39  37  92 NW17      29.64R WCI  30
CHARLES CITY * PTSUNNY   36  36 100 N20G30    29.72R WCI  25
CLINTON *      LGT RAIN  37  35  92 N20       29.58R WCI  27
DECORAH *      CLOUDY    36  32  87 N16G28    29.67R WCI  26
DUBUQUE        CLOUDY    36  35  96 N17G24    29.59S WCI  26
MONTICELLO *   CLOUDY    39  36  87 N15G22    29.62R WCI  31
OELWEIN *      CLOUDY    36  36 100 N17G30    29.69R WCI  25
WATERLOO       CLOUDY    37  32  82 N21G29    29.72R WCI  26
$$

IAZ064-065-067-068-078-181700-
   EAST CENTRAL IOWA

CITY           SKY/WX    TMP DP  RH WIND       PRES   REMARKS
DAVENPORT      LGT RAIN  38  35  89 N20G28    29.58R WCI  28
IOWA CITY      CLOUDY    41  37  86 N14G28    29.64R
MT. PLEASANT * MIX PCPN  38  38  99 N18G28    29.61S WCI  29
MUSCATINE *    LGT RAIN  39  37  93 N14G21    29.63R WCI  31
QUAD CITIES    LGT RAIN  40  35  83 N16G25    29.56R WCI  31
$$

IAZ062-063-075>077-085>089-095>099-181700-
   SOUTHEAST IOWA

CITY           SKY/WX    TMP DP  RH WIND       PRES   REMARKS
BURLINGTON     RAIN      40  39  97 N18       29.58R FOG     WCI  31
FAIRFIELD *    CLOUDY    39  37  93 NW20G25   29.65R FOG     WCI  30
FORT MADISON * LGT RAIN  39  39 100 N20G25    29.58F WCI  30
KEOKUK *       LGT RAIN  39  39 100 N16G29    29.58R WCI  30
OSKALOOSA *    CLOUDY    38  37  93 NW21G30   29.71R FOG     WCI  28
OTTUMWA        CLOUDY    40  37  89 NW23G29   29.70R WCI  30
WASHINGTON *   CLOUDY    39  39 100 N20G25    29.64R WCI  30
$$

ABBREVIATIONS USED IN REMARKS
   TC - TEMPERATURES IN CELSIUS
  WCI - WIND CHILL INDEX
   HX - HEAT INDEX
  VSB - VISIBILITY
$$




USA.gov is the U.S. government's official web portal to all federal, state and local government web resources and services.